Location: Izdebno
(52.6670°N, 16.2170°E)
Time: 07:02:08
(UTC+01:00)

Transit 2A - Visible Passes

Search period start: 06 February 2023 00:00
Search period end: 16 February 2023 00:00
Orbit: 593 x 963 km, 66.7° (Epoch: 05 February)

Date Brightness Start Highest point End Pass type
(mag) Time Alt. Az. Time Alt. Az. Time Alt. Az.
06 Feb 6.4 17:24:53 10° SW 17:29:55 65° NW 17:35:33 10° NE visible
06 Feb 7.8 19:09:47 10° WNW 19:14:12 25° NNW 19:17:45 15° NNE visible
06 Feb 8.3 20:55:09 10° NW 20:58:13 19° N 20:58:13 19° N visible
07 Feb 7.7 18:34:47 10° W 18:39:21 29° NNW 18:44:18 10° NNE visible
07 Feb 8.1 20:20:17 10° NW 20:24:24 20° N 20:24:46 20° N visible
07 Feb 8.9 22:04:24 10° NW 22:05:14 14° NNW 22:05:14 14° NNW visible
08 Feb 7.4 17:59:49 10° W 18:04:34 34° NNW 18:09:47 10° NE visible
08 Feb 8.1 19:45:21 10° NW 19:49:28 20° N 19:51:17 18° NNE visible
08 Feb 8.5 21:29:48 10° NW 21:31:45 18° NNW 21:31:45 18° NNW visible
09 Feb 7.2 17:24:54 10° WSW 17:29:48 40° NW 17:35:14 10° NE visible
09 Feb 8.0 19:10:22 10° WNW 19:14:34 21° N 19:17:48 14° NNE visible
09 Feb 8.2 20:55:08 10° NW 20:58:16 21° N 20:58:16 21° N visible
09 Feb 9.1 22:38:31 10° NW 22:38:44 11° NW 22:38:44 11° NW visible
10 Feb 7.9 18:35:20 10° WNW 18:39:39 23° NNW 18:44:17 10° NE visible
10 Feb 8.0 20:20:26 10° NW 20:24:46 22° N 20:24:46 22° N visible
10 Feb 8.8 22:04:00 10° NW 22:05:14 16° NNW 22:05:14 16° NNW visible
11 Feb 7.8 18:00:18 10° WNW 18:04:46 25° NNW 18:09:36 10° NE visible
11 Feb 8.0 19:45:38 10° NW 19:49:55 21° N 19:51:15 19° NNE visible
11 Feb 8.3 21:29:27 10° NW 21:31:43 21° NNW 21:31:43 21° NNW visible
12 Feb 8.0 19:10:47 10° NW 19:14:58 20° N 19:17:45 15° NE visible
12 Feb 8.0 20:54:53 10° NW 20:58:13 25° N 20:58:13 25° N visible
12 Feb 9.0 22:38:04 10° NW 22:38:41 13° NW 22:38:41 13° NW visible
13 Feb 8.0 18:35:50 10° NW 18:40:02 21° N 18:44:14 11° NE visible
13 Feb 7.8 20:20:16 10° NW 20:24:42 26° NNE 20:24:42 26° NNE visible
13 Feb 8.6 22:03:32 10° NW 22:05:10 19° NNW 22:05:10 19° NNW visible
14 Feb 8.0 18:00:50 10° WNW 18:05:06 22° N 18:09:38 10° NE visible
14 Feb 7.8 19:45:37 10° NW 19:50:18 24° NNE 19:51:12 23° NNE visible
14 Feb 8.1 21:29:00 10° NW 21:31:40 26° NNW 21:31:40 26° NNW visible
15 Feb 7.9 19:10:53 10° NW 19:15:23 22° NNE 19:17:42 18° NE visible
15 Feb 7.7 20:54:27 10° NW 20:58:10 32° N 20:58:10 32° N visible
15 Feb 8.9 22:37:40 10° NW 22:38:38 15° NW 22:38:38 15° NW visible
